Weather History for KLAA - October, 2012

Change the Weather History Date:

Tuesday, October 23, 2012

  Actual Average Record
Temperature  
Mean Temperature 62 °F 50 °F  
Max Temperature 89 °F 67 °F 91 °F (1921)
Min Temperature 34 °F 32 °F 22 °F (1961)
Degree Days  
Heating Degree Days 3 15  
Month to date heating degree days 251 248  
Since 1 July heating degree days 300 331  
Cooling Degree Days 0 0  
Month to date cooling degree days 1 8  
Year to date cooling degree days 1626 1120  
Growing Degree Days 12 (Base 50)    
Moisture  
Dew Point 30 °F    
Average Humidity 53    
Maximum Humidity 100    
Minimum Humidity 6    
Precipitation  
Precipitation 0.00 in 0.03 in 0.96 in (1941)
Month to date precipitation 0.36 0.63  
Year to date precipitation 5.86 14.25  
Sea Level Pressure  
Sea Level Pressure 29.66 in    
Wind  
Wind Speed 8 mph (WSW)    
Max Wind Speed 24 mph    
Max Gust Speed 32 mph    
Visibility 7 miles    
Events Fog    
T = Trace of Precipitation, MM = Missing Value Source: NWS Daily Summary

Daily Weather History Graph

Daily Weather History Graph

Search for Another Location

Airport or City:

Trip Planner

Search our weather history database for the weather conditions in past years. The results will help you decide how hot, cold, wet, or windy it might be!

Date:

Astronomy

Oct. 23, 2012 Rise Set
Actual Time 7:07 AM MDT 6:01 PM MDT
Civil Twilight 6:40 AM MDT 6:28 PM MDT
Nautical Twilight 6:10 AM MDT 6:59 PM MDT
Astronomical Twilight 5:39 AM MDT 7:29 PM MDT
Moon 2:41 PM MDT (10/23) 1:07 AM MDT (10/23)
Length of Visible Light 11h 47m
Length of Day
10h 53m
Waxing Gibbous, 67% of the Moon is Illuminated
Oct 23
Waxing Gibbous
Oct 29
Full
Nov 6
Last Quarter
Nov 13
New
Nov 20
First Quarter

Hourly Weather History & Observations

Time (MDT) Temp. Windchill Dew Point Humidity Pressure Visibility Wind Dir Wind Speed Gust Speed Precip Events Conditions
12:53 AM 46.0 °F - 44.1 °F 93% 29.64 in 6.0 mi Calm Calm - N/A   Clear
1:42 AM 37.4 °F 34.9 °F 37.4 °F 100% 29.71 in 5.0 mi WSW 3.5 mph - N/A   Scattered Clouds
1:47 AM 37.4 °F 34.9 °F 37.4 °F 100% 29.71 in 1.8 mi West 3.5 mph - N/A   Mostly Cloudy
1:49 AM 39.2 °F - 37.4 °F 93% 29.71 in 1.0 mi Calm Calm - N/A   Mist
1:53 AM 39.0 °F 36.8 °F 37.9 °F 96% 29.65 in 0.5 mi West 3.5 mph - N/A Fog Fog
2:19 AM 39.2 °F 35.9 °F 37.4 °F 93% 29.71 in 1.2 mi West 4.6 mph - N/A   Scattered Clouds
2:25 AM 39.2 °F 35.9 °F 37.4 °F 93% 29.71 in 2.0 mi WSW 4.6 mph - N/A   Scattered Clouds
2:53 AM 39.9 °F 35.1 °F 39.0 °F 97% 29.63 in 3.0 mi WSW 6.9 mph - N/A   Clear
3:53 AM 37.9 °F 35.5 °F 36.0 °F 93% 29.64 in 3.0 mi West 3.5 mph - N/A   Clear
4:03 AM 37.4 °F 34.9 °F 37.4 °F 100% 29.72 in 2.5 mi WNW 3.5 mph - N/A   Clear
4:23 AM 39.2 °F - 37.4 °F 93% 29.72 in 3.0 mi Calm Calm - N/A   Clear
4:53 AM 39.9 °F - 37.9 °F 93% 29.64 in 6.0 mi Calm Calm - N/A   Clear
5:53 AM 36.0 °F 30.3 °F 35.1 °F 97% 29.68 in 8.0 mi West 6.9 mph - N/A   Clear
6:53 AM 39.9 °F 34.5 °F 36.0 °F 86% 29.69 in 10.0 mi SSW 8.1 mph - N/A   Clear
7:53 AM 43.0 °F 39.5 °F 37.9 °F 82% 29.71 in 10.0 mi WSW 5.8 mph - N/A   Clear
8:53 AM 52.0 °F - 37.9 °F 59% 29.72 in 10.0 mi West 4.6 mph - N/A   Clear
9:53 AM 60.1 °F - 39.0 °F 46% 29.71 in 10.0 mi Calm Calm - N/A   Clear
11:53 AM 84.9 °F - 21.9 °F 10% 29.63 in 10.0 mi West 21.9 mph 29.9 mph N/A   Clear
12:53 PM 86.0 °F - 19.9 °F 9% 29.60 in 10.0 mi WSW 16.1 mph - N/A   Clear
1:53 PM 89.1 °F - 18.0 °F 7% 29.59 in 10.0 mi SSW 16.1 mph 32.2 mph N/A   Clear
2:53 PM 88.0 °F - 17.1 °F 7% 29.57 in 10.0 mi WSW 17.3 mph 24.2 mph N/A   Clear
3:53 PM 88.0 °F - 16.0 °F 7% 29.57 in 10.0 mi WSW 12.7 mph - N/A   Clear
4:27 PM 87.8 °F - 12.2 °F 6% 29.68 in 10.0 mi West 11.5 mph - N/A   Clear
4:53 PM 86.0 °F - 12.9 °F 7% 29.57 in 10.0 mi West 8.1 mph - N/A   Clear
5:53 PM 75.9 °F - 17.1 °F 11% 29.60 in 10.0 mi ESE 5.8 mph - N/A   Clear
6:53 PM 57.9 °F - 21.0 °F 24% 29.64 in 10.0 mi SSE 6.9 mph - N/A   Clear
7:53 PM 55.0 °F - 21.9 °F 28% 29.65 in 10.0 mi Variable 3.5 mph - N/A   Clear
8:53 PM 53.1 °F - 23.0 °F 31% 29.65 in 10.0 mi WSW 6.9 mph - N/A   Clear
9:53 PM 48.9 °F - 23.0 °F 36% 29.65 in 10.0 mi SSW 13.8 mph 17.3 mph N/A   Clear
10:53 PM 51.1 °F - 21.9 °F 32% 29.63 in 10.0 mi SW 8.1 mph - N/A   Clear